1998-067XD

Last updated on Wed Feb 05 2025 00:02:08 GMT+0000 (Coordinated Universal Time)

1 62297U 98067XD 25035.53481884 .00320363 00000+0 23276-2 0 9990 2 62297 51.6302 240.0778 0014487 202.7557 157.2800 15.71725813 8927
UTC large
Height (km)
Speed (km/s)
/
Latitude / Longitude
Inclination (degrees)
Orbital Period (minutes)
Azimuth
Elevation
Range (km)
Doppler Factor

Next 0 passes for location: London (51.5072 / 0.1276)

Sorry there are no passes over London.